Port Huron, MI

1:48 AM EST on December 06, 2019 (GMT -0500)
Saint Clair County International

Weather History for KPHN - June, 2019

Change the Weather History Date:

Tuesday, June 4, 2019

  Actual Average (KMTC) Record (KMTC)
Temperature  
Mean Temperature 62 °F -  
Max Temperature 78 °F 74 °F 90 °F (2011)
Min Temperature 46 °F 49 °F 39 °F (1998)
Degree Days  
Heating Degree Days 3    
Growing Degree Days 12 (Base 50)    
Moisture  
Dew Point 48 °F    
Average Humidity 60    
Maximum Humidity 88    
Minimum Humidity 32    
Precipitation  
Precipitation 0.00 in - - ()
Sea Level Pressure  
Sea Level Pressure 29.99 in    
Wind  
Wind Speed 3 mph (SSW)    
Max Wind Speed 15 mph    
Max Gust Speed 22 mph    
Visibility 10 miles    
Events      
Averages and records for this station are not official NWS values.
T = Trace of Precipitation, MM = Missing Value Source: NWS Daily Summary

Daily Weather History Graph

Daily Weather History Graph

Search for Another Location

Airport or City:

Astronomy

Jun. 04, 2019 Rise Set
Actual Time 5:52 AM EDT 9:04 PM EDT
Civil Twilight 5:18 AM EDT 9:39 PM EDT
Nautical Twilight 4:33 AM EDT 10:23 PM EDT
Astronomical Twilight 3:39 AM EDT 11:17 PM EDT
Moon 7:01 AM EDT (6/4) 10:31 PM EDT (6/4)
Length of Visible Light 16h 20m
Length of Day
15h 11m
New Moon, 2% of the Moon is Illuminated
Jun 4
New Moon
Jun 10
First Quarter
Jun 17
Full
Jun 25
Last Quarter
Jul 2
New

Hourly Weather History & Observations

Time (EDT) Temp. Dew Point Humidity Pressure Visibility Wind Dir Wind Speed Gust Speed Precip Events Conditions
12:16 AM 50.0 °F 44.6 °F 82% 30.10 in 10.0 mi Calm Calm - N/A   Clear
12:35 AM 50.0 °F 44.6 °F 82% 30.10 in 10.0 mi Calm Calm - N/A   Clear
12:36 AM 50.0 °F 44.6 °F 82% 30.10 in 10.0 mi Calm Calm - N/A   Clear
12:55 AM 50.0 °F 44.6 °F 82% 30.10 in 10.0 mi Calm Calm - N/A   Clear
1:19 AM 50.0 °F 42.8 °F 76% 30.09 in 10.0 mi SSW 3.5 mph - N/A   Clear
1:37 AM 50.0 °F 42.8 °F 76% 30.09 in 10.0 mi SSW 3.5 mph - N/A   Scattered Clouds
1:55 AM 50.0 °F 44.6 °F 82% 30.09 in 10.0 mi Calm Calm - N/A   Scattered Clouds
2:15 AM 48.2 °F 42.8 °F 82% 30.09 in 10.0 mi Calm Calm - N/A   Clear
2:35 AM 46.4 °F 42.8 °F 87% 30.09 in 10.0 mi Calm Calm - N/A   Clear
2:40 AM 46.4 °F 42.8 °F 87% 30.08 in 10.0 mi Calm Calm - N/A   Clear
2:58 AM 48.2 °F 44.6 °F 87% 30.08 in 10.0 mi Calm Calm - N/A   Scattered Clouds
3:16 AM 48.2 °F 44.6 °F 87% 30.08 in 10.0 mi Calm Calm - N/A   Mostly Cloudy
3:35 AM 48.2 °F 44.6 °F 87% 30.08 in 10.0 mi Calm Calm - N/A   Mostly Cloudy
3:56 AM 50.0 °F 46.4 °F 87% 30.08 in 10.0 mi Calm Calm - N/A   Mostly Cloudy
4:18 AM 51.8 °F 46.4 °F 82% 30.09 in 10.0 mi Calm Calm - N/A   Scattered Clouds
4:37 AM 50.0 °F 46.4 °F 87% 30.09 in 10.0 mi Calm Calm - N/A   Mostly Cloudy
4:55 AM 51.8 °F 46.4 °F 82% 30.09 in 10.0 mi Calm Calm - N/A   Overcast
5:15 AM 51.8 °F 46.4 °F 82% 30.08 in 10.0 mi Calm Calm - N/A   Mostly Cloudy
5:16 AM 51.8 °F 46.4 °F 82% 30.08 in 10.0 mi Calm Calm - N/A   Mostly Cloudy
5:35 AM 51.8 °F 48.2 °F 88% 30.08 in 10.0 mi Calm Calm - N/A   Mostly Cloudy
5:40 AM 51.8 °F 48.2 °F 88% 30.08 in 10.0 mi Calm Calm - N/A   Mostly Cloudy
5:58 AM 51.8 °F 48.2 °F 88% 30.08 in 10.0 mi Calm Calm - N/A   Scattered Clouds
6:16 AM 51.8 °F 48.2 °F 88% 30.08 in 10.0 mi Calm Calm - N/A   Mostly Cloudy
6:35 AM 51.8 °F 48.2 °F 88% 30.08 in 10.0 mi Calm Calm - N/A   Overcast
6:36 AM 51.8 °F 48.2 °F 88% 30.08 in 10.0 mi Calm Calm - N/A   Overcast
6:55 AM 51.8 °F 46.4 °F 82% 30.08 in 10.0 mi Calm Calm - N/A   Overcast
7:19 AM 51.8 °F 48.2 °F 88% 30.07 in 10.0 mi Calm Calm - N/A   Overcast
7:37 AM 53.6 °F 50.0 °F 88% 30.07 in 10.0 mi Calm Calm - N/A   Overcast
7:55 AM 55.4 °F 50.0 °F 82% 30.08 in 10.0 mi Calm Calm - N/A   Overcast
7:56 AM 55.4 °F 50.0 °F 82% 30.08 in 10.0 mi Calm Calm - N/A   Overcast
8:15 AM 55.4 °F 50.0 °F 82% 30.07 in 10.0 mi SSW 3.5 mph - N/A   Overcast
8:35 AM 55.4 °F 50.0 °F 82% 30.06 in 10.0 mi Calm Calm - N/A   Overcast
8:58 AM 57.2 °F 50.0 °F 77% 30.06 in 10.0 mi South 3.5 mph - N/A   Overcast
9:16 AM 60.8 °F 50.0 °F 68% 30.05 in 10.0 mi SSW 5.8 mph - N/A   Overcast
9:35 AM 62.6 °F 46.4 °F 55% 30.06 in 10.0 mi SSW 4.6 mph - N/A   Overcast
9:55 AM 62.6 °F 44.6 °F 52% 30.06 in 10.0 mi South 5.8 mph - N/A   Overcast
9:56 AM 62.6 °F 44.6 °F 52% 30.06 in 10.0 mi SSW 5.8 mph - N/A   Overcast
10:19 AM 66.2 °F 44.6 °F 46% 30.05 in 10.0 mi South 9.2 mph - N/A   Scattered Clouds
10:37 AM 68.0 °F 42.8 °F 40% 30.05 in 10.0 mi SSW 5.8 mph - N/A   Scattered Clouds
10:55 AM 68.0 °F 41.0 °F 37% 30.03 in 10.0 mi SSW 8.1 mph - N/A   Scattered Clouds
11:15 AM 69.8 °F 39.2 °F 33% 30.03 in 10.0 mi SSW 8.1 mph - N/A   Clear
11:16 AM 69.8 °F 39.2 °F 33% 30.03 in 10.0 mi SSW 8.1 mph - N/A   Clear
11:35 AM 71.6 °F 42.8 °F 35% 30.02 in 10.0 mi SSW 8.1 mph 18.4 mph N/A   Scattered Clouds
11:40 AM 69.8 °F 41.0 °F 35% 30.02 in 10.0 mi SSW 10.4 mph - N/A   Scattered Clouds
11:58 AM 71.6 °F 42.8 °F 35% 30.01 in 10.0 mi SSW 8.1 mph - N/A   Clear
12:16 PM 71.6 °F 44.6 °F 38% 30.01 in 10.0 mi South 10.4 mph - N/A   Scattered Clouds
12:35 PM 71.6 °F 44.6 °F 38% 30.00 in 10.0 mi SSW 11.5 mph 16.1 mph N/A   Scattered Clouds
12:36 PM 73.4 °F 44.6 °F 36% 30.00 in 10.0 mi South 11.5 mph 16.1 mph N/A   Scattered Clouds
12:55 PM 73.4 °F 46.4 °F 38% 29.99 in 10.0 mi SSW 6.9 mph - N/A   Clear
1:19 PM 73.4 °F 46.4 °F 38% 29.98 in 10.0 mi SSW 9.2 mph - N/A   Clear
1:37 PM 75.2 °F 48.2 °F 38% 29.97 in 10.0 mi South 13.8 mph 17.3 mph N/A   Clear
1:55 PM 75.2 °F 50.0 °F 41% 29.96 in 10.0 mi South 15.0 mph 19.6 mph N/A   Clear
1:56 PM 75.2 °F 50.0 °F 41% 29.96 in 10.0 mi South 15.0 mph 19.6 mph N/A   Clear
2:15 PM 77.0 °F 50.0 °F 39% 29.94 in 10.0 mi South 15.0 mph 21.9 mph N/A   Clear
2:35 PM 77.0 °F 51.8 °F 41% 29.94 in 10.0 mi SSW 8.1 mph 20.7 mph N/A   Scattered Clouds
2:58 PM 77.0 °F 51.8 °F 41% 29.93 in 10.0 mi SW 10.4 mph 18.4 mph N/A   Mostly Cloudy
3:16 PM 77.0 °F 51.8 °F 41% 29.92 in 10.0 mi SSW 10.4 mph 17.3 mph N/A   Scattered Clouds
3:35 PM 78.8 °F 48.2 °F 34% 29.91 in 10.0 mi SSW 10.4 mph 19.6 mph N/A   Mostly Cloudy
3:55 PM 77.0 °F 48.2 °F 36% 29.90 in 10.0 mi SW 10.4 mph 20.7 mph N/A   Overcast
4:19 PM 77.0 °F 50.0 °F 39% 29.89 in 10.0 mi SW 9.2 mph - N/A   Overcast
4:37 PM 78.8 °F 48.2 °F 34% 29.89 in 10.0 mi SW 6.9 mph - N/A   Overcast
4:56 PM 78.8 °F 48.2 °F 34% 29.88 in 10.0 mi WSW 6.9 mph - N/A   Overcast
5:15 PM 77.0 °F 48.2 °F 36% 29.88 in 10.0 mi SW 9.2 mph - N/A   Overcast
5:16 PM 77.0 °F 48.2 °F 36% 29.88 in 10.0 mi SW 8.1 mph - N/A   Overcast
5:35 PM 77.0 °F 46.4 °F 34% 29.87 in 10.0 mi SW 6.9 mph 20.7 mph N/A   Overcast
5:58 PM 78.8 °F 46.4 °F 32% 29.87 in 10.0 mi SW 6.9 mph 17.3 mph N/A   Overcast
6:16 PM 77.0 °F 46.4 °F 34% 29.87 in 10.0 mi WSW 6.9 mph 16.1 mph N/A   Overcast
6:35 PM 77.0 °F 48.2 °F 36% 29.87 in 10.0 mi SW 9.2 mph 17.3 mph N/A   Overcast
6:55 PM 75.2 °F 50.0 °F 41% 29.86 in 10.0 mi SW 6.9 mph - N/A   Overcast
7:19 PM 75.2 °F 50.0 °F 41% 29.87 in 10.0 mi SW 5.8 mph - N/A   Overcast
7:37 PM 73.4 °F 50.0 °F 44% 29.86 in 10.0 mi SW 6.9 mph - N/A   Overcast
7:55 PM 73.4 °F 50.0 °F 44% 29.86 in 10.0 mi SSW 9.2 mph - N/A   Overcast
8:15 PM 73.4 °F 50.0 °F 44% 29.86 in 10.0 mi SSW 6.9 mph - N/A   Overcast
8:35 PM 71.6 °F 51.8 °F 50% 29.85 in 10.0 mi SSW 5.8 mph - N/A   Overcast
8:58 PM 69.8 °F 53.6 °F 56% 29.85 in 10.0 mi SSW 4.6 mph - N/A   Overcast
9:16 PM 69.8 °F 53.6 °F 56% 29.84 in 10.0 mi South 4.6 mph - N/A   Overcast
9:35 PM 68.0 °F 53.6 °F 60% 29.84 in 10.0 mi South 4.6 mph - N/A   Overcast
9:55 PM 68.0 °F 55.4 °F 64% 29.85 in 10.0 mi SSW 3.5 mph - N/A   Overcast
10:19 PM 66.2 °F 55.4 °F 68% 29.85 in 10.0 mi SSW 3.5 mph - N/A   Overcast
10:37 PM 68.0 °F 55.4 °F 64% 29.86 in 10.0 mi SSW 4.6 mph - N/A   Overcast
10:55 PM 66.2 °F 55.4 °F 68% 29.85 in 10.0 mi SSW 4.6 mph - N/A   Overcast
11:15 PM 66.2 °F 55.4 °F 68% 29.85 in 10.0 mi SSW 3.5 mph - N/A   Overcast
11:16 PM 66.2 °F 55.4 °F 68% 29.85 in 10.0 mi SSW 3.5 mph - N/A   Overcast
11:35 PM 66.2 °F 55.4 °F 68% 29.84 in 10.0 mi SSW 3.5 mph - N/A   Overcast
11:40 PM 66.2 °F 55.4 °F 68% 29.84 in 10.0 mi SSW 3.5 mph - N/A   Overcast
11:58 PM 66.2 °F 55.4 °F 68% 29.84 in 10.0 mi SSW 4.6 mph - N/A   Overcast